RH
12 11 11 10 11 11 12 13 14 16 17 17 17 18 21 25 32 32 31 28 28 34 34 43 42 45 54 51 52 79 86 98 100 80 34 43 36 37 30 36 62 76 73 68 68
16 12 13 13 12 12 12 13 15 17 18 18 18 19 24 28 36 36 34 32 30 31 35 42 34 37 48 68 76 85 97 94 70 49 41 25 42 38 31 32 45 74 81 73 79
15 19 17 13 14 15 16 15 15 17 18 20 19 20 25 30 39 42 39 40 33 32 39 46 43 37 43 61 88 88 86 79 67 70 47 27 41 49 43 40 51 67 80 81 84
17 15 16 18 16 14 15 16 16 17 18 20 20 21 25 32 38 44 41 43 47 40 42 44 48 43 40 48 83 92 85 79 58 65 47 47 60 49 47 62 84 83 83 84 83
21 19 16 16 16 18 18 16 15 16 18 19 19 20 24 30 34 40 41 44 53 56 46 45 54 60 64 63 73 83 83 84 69 58 52 49 54 65 40 77 87 89 84 86 84
24 23 21 19 17 16 18 19 17 16 16 18 18 18 24 28 33 36 42 42 50 55 60 56 58 57 69 76 76 74 77 75 67 56 56 52 49 63 36 58 86 82 79 82 79
13 18 22 22 21 20 17 17 18 18 16 17 17 18 23 27 31 34 39 40 45 56 60 65 57 62 74 79 74 78 68 64 63 63 59 55 41 37 38 42 77 82 81 72 65
8 10 12 16 19 22 22 20 19 19 16 16 17 18 20 25 30 32 35 36 38 50 60 65 72 72 75 83 78 75 77 81 76 69 61 62 29 38 31 30 57 86 77 85 94
12 10 10 10 13 14 14 15 18 20 18 16 17 17 18 21 26 32 33 36 37 39 50 56 68 73 78 79 75 88 92 82 72 81 80 72 44 38 47 48 33 77 81 65 81
13 12 11 10 10 9 10 10 11 16 19 14 16 17 18 18 21 26 30 33 35 36 40 46 59 75 75 83 89 96 99 89 83 75 85 83 62 40 40 53 44 44 69 74 64
7 7 8 12 12 12 11 10 10 10 18 13 14 16 17 18 19 24 27 28 30 33 35 36 52 72 75 76 85 88 86 85 70 74 81 75 70 49 41 54 49 35 45 65 52
7 11 17 19 18 18 16 11 8 8 15 18 16 18 18 18 17 21 25 26 27 30 32 40 45 59 74 78 80 78 77 67 61 73 81 73 60 51 47 46 51 42 44 47 47
9 10 15 16 16 19 17 12 8 7 11 15 19 21 20 21 19 22 22 22 25 25 30 32 43 47 58 76 79 74 82 65 69 68 62 71 63 49 41 44 46 55 62 62 42
18 15 13 17 18 18 14 11 8 8 12 16 19 22 23 22 21 19 21 25 25 26 26 29 35 48 47 59 75 71 74 80 75 74 73 69 86 54 36 37 41 59 68 65 46
20 20 20 19 17 12 10 8 7 9 41 15 17 13 16 23 21 21 19 23 26 29 34 26 32 42 46 48 66 64 74 78 76 82 76 57 79 47 45 40 38 40 57 60 41
7 7 7 6 6 6 6 6 6 13 26 12 13 10 12 16 22 23 22 22 23 23 27 22 31 38 47 43 50 66 67 65 72 80 85 56 68 42 42 42 40 40 39 58 56
9 8 9 8 8 7 7 6 8 12 15 14 10 8 8 16 16 23 26 23 26 30 29 22 30 39 43 39 46 62 70 80 81 94 90 62 75 50 38 43 46 43 43 38 48
12 21 30 35 36 33 21 11 8 8 8 9 9 8 8 17 15 14 25 25 24 30 34 33 24 30 39 39 37 44 61 80 90 92 80 63 67 39 45 48 42 40 42 47 50
31 28 29 30 31 30 27 22 22 16 13 10 9 8 9 14 18 16 17 26 25 25 26 26 25 26 31 37 41 57 61 68 74 74 87 62 48 36 36 44 42 48 46 49 54
14 17 10 8 14 16 25 26 24 22 17 11 12 13 14 16 20 18 20 24 26 26 25 28 31 25 26 40 39 40 57 64 68 83 81 60 52 40 34 37 47 47 50 46 68
1 1 2 2 2 8 19 26 26 20 15 26 28 27 24 27 27 21 20 25 26 27 28 27 34 29 29 30 31 39 49 55 57 58 76 77 51 34 34 28 46 46 49 58 63
2 2 2 1 4 7 15 23 27 23 23 28 37 38 32 33 34 31 18 26 25 28 33 36 35 36 28 26 32 46 51 51 55 55 56 56 53 28 28 31 29 26 49 63 62
2 2 3 3 4 6 10 13 20 24 44 64 60 55 53 48 46 34 34 32 29 34 38 32 39 38 29 35 38 46 40 43 50 54 55 61 41 26 27 29 30 22 29 56 68
1 2 3 5 20 26 19 21 24 50 59 59 66 64 63 61 56 53 43 42 36 42 44 46 40 37 36 29 30 36 33 34 40 42 40 38 30 28 31 33 33 26 23 40 56
1 2 2 5 17 12 20 15 19 26 29 67 74 78 80 76 72 65 64 56 61 62 55 60 52 41 36 34 36 34 34 33 35 36 46 35 38 35 34 34 28 29 28 32 50
2 2 2 2 3 3 3 6 5 5 14 10 34 56 77 96 94 98 76 80 77 63 68 69 64 50 41 35 38 36 33 33 33 35 40 38 37 31 31 35 34 31 30 30 44
2 3 2 3 3 3 5 6 6 7 11 16 57 81 69 76 100 100 95 84 94 91 78 87 75 66 60 48 44 53 26 29 31 34 36 37 29 32 30 25 27 27 26 31 41
Wind_Speed
10 10 11 11 12 13 15 17 18 20 20 23 26 27 26 24 20 27 25 25 23 17 16 11 9 8 7 8 9 10 17 16 15 20 25 16 23 20 23 22 23 27 29 31 37
13 12 12 11 12 13 14 16 18 19 20 21 24 26 25 25 18 27 24 25 21 17 14 11 10 9 10 6 8 12 15 17 20 18 17 25 25 20 21 20 26 25 29 31 33
15 14 14 13 12 13 14 15 16 18 19 19 21 24 23 24 15 27 25 24 23 18 14 10 11 11 11 9 9 14 20 17 13 11 18 24 28 22 14 15 21 27 28 30 32
15 15 15 15 15 14 13 14 15 17 18 18 18 20 21 21 17 22 25 27 26 20 15 12 10 12 14 9 9 17 16 16 13 14 20 25 27 25 17 13 16 24 28 31 34
16 16 17 16 15 14 14 14 15 16 16 17 16 17 18 17 19 21 23 26 26 20 15 13 10 9 9 11 11 15 18 15 15 16 18 28 31 24 23 14 12 18 22 26 37
16 17 17 18 17 17 16 16 16 16 16 15 14 14 15 14 17 19 22 24 25 22 15 12 10 10 9 14 16 17 18 16 13 16 18 27 35 29 28 17 12 18 22 23 32
14 15 16 17 18 19 19 19 18 18 16 15 12 12 13 14 15 17 19 22 23 23 16 12 10 10 12 14 7 7 14 16 16 11 18 19 30 39 31 25 17 12 15 25 18
13 13 14 16 17 18 20 21 21 19 15 14 12 13 10 13 14 15 17 19 19 20 19 16 11 9 10 10 7 8 10 11 9 12 12 14 27 21 29 32 25 21 18 17 18
12 13 14 14 16 17 20 22 23 21 18 13 10 12 10 12 12 13 16 18 18 19 17 17 18 13 9 10 6 5 12 11 12 10 9 16 27 17 22 25 32 28 22 18 18
12 12 13 15 15 17 19 22 24 22 18 10 8 9 12 12 12 12 13 16 16 17 18 17 16 16 11 10 8 10 10 8 11 9 17 19 29 19 17 23 25 37 33 27 23
11 11 12 14 16 18 20 23 26 26 19 7 9 11 13 11 12 11 14 15 16 17 17 18 14 13 16 11 10 12 12 16 14 10 19 20 24 21 15 15 23 39 39 36 32
11 11 12 14 16 19 22 24 25 26 15 12 9 11 14 16 16 11 13 15 16 16 17 19 12 15 17 11 10 8 13 15 16 6 18 22 25 25 21 19 24 32 36 36 31
14 14 16 17 19 20 22 23 24 26 19 4 9 11 17 18 19 9 15 16 17 16 17 18 11 13 15 9 10 9 13 15 17 20 19 21 31 24 15 20 27 31 28 25 27
17 18 19 21 22 22 23 24 25 26 11 3 8 10 20 21 12 20 13 15 15 17 20 10 14 12 12 12 11 14 7 12 13 15 8 14 10 33 19 17 26 29 26 21 27
22 21 21 23 24 24 24 25 26 25 5 8 8 18 22 21 16 15 16 17 17 16 15 9 14 12 10 8 10 11 14 16 16 16 17 15 7 15 24 21 20 36 30 25 34
24 26 23 24 24 24 23 23 23 12 6 10 11 20 22 21 16 17 16 17 21 15 13 11 13 9 8 7 9 12 16 15 10 8 4 5 5 21 13 12 14 18 33 23 31
26 26 26 25 25 25 23 21 14 6 7 6 19 21 24 17 18 19 21 19 14 10 10 19 7 8 7 7 7 6 11 6 4 1 6 6 9 20 18 16 14 16 20 33 25
27 26 25 27 26 25 24 19 10 13 15 23 21 23 22 12 15 22 22 22 15 12 16 9 8 6 6 8 7 9 6 2 4 3 7 21 8 13 22 18 15 9 17 26 26
34 32 30 33 31 29 24 19 19 20 15 17 21 20 13 17 16 20 21 21 11 9 6 7 8 15 12 13 9 4 7 4 6 12 4 7 11 22 17 10 11 6 12 19 23
23 25 26 25 25 22 21 25 22 20 20 22 24 12 18 18 19 19 17 13 13 11 10 9 14 13 10 12 14 17 9 5 5 2 5 7 12 14 22 13 12 9 10 16 22
19 19 18 16 15 17 18 20 17 17 17 13 16 24 28 25 25 21 14 20 17 14 13 13 13 11 15 9 9 10 18 12 8 7 3 3 8 16 23 12 7 13 12 14 20
18 18 17 15 14 15 13 15 17 18 22 28 27 20 19 20 23 23 27 21 19 19 18 17 13 17 25 21 16 14 16 15 8 6 9 3 21 14 9 12 13 9 13 14 17
19 18 14 14 13 16 19 19 22 22 16 11 13 18 23 26 19 10 15 15 16 18 11 13 9 9 11 8 10 16 15 19 23 23 21 6 14 20 22 21 20 11 9 16 18
19 14 13 14 9 13 18 18 10 10 14 16 13 10 14 18 11 13 18 18 22 25 21 20 24 26 21 25 25 20 18 21 20 17 24 30 37 32 24 25 22 15 13 14 20
19 16 14 14 13 17 22 22 23 24 21 19 16 14 18 23 21 21 15 17 14 16 19 20 26 29 31 31 32 33 35 33 35 39 32 44 39 41 31 23 20 23 17 13 18
19 18 16 18 17 20 19 21 24 24 25 21 27 35 28 26 19 28 30 24 29 27 28 29 31 31 38 33 30 31 35 34 37 38 41 40 42 29 21 27 25 21 16 14 17
20 20 23 21 23 23 21 21 23 24 22 18 23 29 32 29 33 34 32 32 34 29 26 30 31 26 32 32 27 19 35 26 27 32 26 28 21 21 14 11 11 11 10 11 16
Wind_Direction
13 6 0 358 357 357 359 359 360 2 4 7 7 9 7 2 2 1 4 5 5 353 345 325 306 302 296 273 260 226 232 244 255 255 241 223 233 221 222 227 222 224 229 234 240
19 6 355 350 346 345 348 350 352 354 359 5 3 5 6 3 5 9 9 9 6 3 357 334 318 310 305 296 256 231 246 255 260 269 263 234 253 242 225 216 228 222 232 229 230
14 12 8 358 346 342 343 343 343 346 352 357 359 0 4 3 2 9 10 8 6 4 2 340 320 309 297 293 276 262 259 272 268 260 239 233 247 251 245 221 229 220 222 228 221
13 10 11 6 1 351 345 341 339 338 342 349 355 357 3 2 8 1 8 12 9 2 355 343 331 310 305 308 302 282 274 270 261 242 236 235 250 251 241 221 229 218 217 229 223
17 11 8 7 4 360 353 346 340 335 334 340 348 355 360 1 4 3 7 9 10 3 357 344 338 323 320 312 279 273 288 268 262 242 242 236 247 260 232 227 232 222 219 225 224
17 15 10 6 3 0 358 354 347 336 331 334 343 350 358 6 4 360 2 2 9 5 356 356 349 337 321 322 277 274 279 280 269 259 258 248 242 254 229 229 246 228 226 232 246
6 11 11 9 6 4 360 357 353 344 331 331 340 346 354 4 8 7 5 358 1 5 6 1 351 347 334 329 314 317 304 279 278 283 261 271 249 245 245 240 225 233 229 243 257
2 4 5 6 7 5 5 0 357 350 341 333 337 344 355 1 4 6 3 4 358 360 9 11 351 348 344 351 330 321 311 324 349 301 259 250 248 245 251 245 229 230 231 229 218
2 2 3 4 3 4 3 3 1 356 347 339 333 341 349 348 353 353 355 360 360 355 348 3 9 341 331 335 331 313 306 302 312 338 302 258 258 254 268 259 235 229 227 239 237
353 360 5 8 8 6 5 3 3 2 351 347 343 344 339 339 339 338 338 340 347 352 353 352 356 358 326 328 322 329 331 310 302 308 306 288 267 270 268 264 244 228 237 232 244
340 349 360 4 6 3 3 359 358 1 354 354 348 339 335 339 332 327 325 323 331 340 343 348 352 346 341 306 303 302 302 303 304 306 296 293 284 276 275 258 238 227 234 234 244
324 332 339 345 347 350 351 352 353 349 353 15 359 352 343 341 334 320 316 314 323 330 333 336 343 346 340 321 294 289 298 301 298 284 290 295 291 282 269 266 237 229 232 236 238
313 316 322 326 332 337 340 342 344 346 337 320 354 354 348 340 330 321 317 313 317 321 324 320 331 342 343 326 295 281 277 291 295 309 301 295 292 291 286 271 239 229 226 224 227
304 309 312 317 320 329 333 336 340 340 319 277 343 352 348 342 329 328 316 309 313 315 323 318 333 330 332 337 294 300 306 302 305 307 295 302 292 296 305 262 237 231 220 217 232
299 300 305 309 314 319 325 329 334 336 353 330 335 340 342 339 325 331 324 317 315 305 300 319 318 318 315 328 313 306 305 300 296 295 300 308 251 290 303 284 249 233 231 232 237
296 297 299 301 306 310 315 319 327 321 258 328 329 336 334 337 327 326 324 321 319 305 289 308 298 299 307 315 313 305 309 308 286 280 282 289 259 298 320 323 287 243 232 229 232
293 293 296 299 300 302 305 314 317 245 283 291 321 323 326 324 331 330 323 322 309 310 312 316 281 282 292 308 290 298 320 324 332 326 236 322 280 274 311 314 272 276 249 219 224
288 288 293 299 302 301 298 298 267 279 276 299 311 315 314 304 326 330 320 317 315 287 300 313 313 287 285 303 284 285 276 221 268 270 282 306 237 315 316 292 289 276 246 208 226
284 284 286 288 288 289 284 264 272 283 286 285 301 308 309 304 313 322 322 309 293 291 271 299 286 305 289 285 280 252 232 234 259 274 296 264 283 317 352 299 275 282 202 217 225
304 290 290 288 281 276 268 268 266 276 277 288 295 279 292 295 299 314 311 293 306 292 284 277 291 299 278 273 266 242 243 244 227 292 288 282 282 273 328 324 263 243 225 234 235
309 306 302 292 283 272 266 272 276 275 278 290 288 287 293 286 291 299 297 291 299 295 283 283 282 279 295 282 285 259 239 240 239 250 221 294 274 304 316 358 290 243 241 224 227
318 315 311 296 281 273 269 262 265 264 270 279 282 289 292 290 292 290 291 277 288 295 288 285 272 276 293 282 276 258 260 252 225 229 232 252 283 307 307 314 334 306 242 216 220
316 320 314 305 281 269 268 274 281 283 284 282 278 287 288 292 295 284 275 276 297 290 274 285 260 295 305 281 283 259 269 261 257 259 257 228 264 293 301 305 308 319 272 226 214
318 318 311 308 294 288 291 295 280 263 278 265 269 278 275 286 287 273 269 290 295 289 286 277 264 260 253 273 285 283 271 282 268 260 265 248 276 290 295 292 288 290 306 235 223
318 314 309 297 284 288 292 290 290 284 267 270 256 255 281 289 286 281 273 256 256 286 290 269 264 276 278 278 283 284 281 278 267 269 255 280 281 293 291 282 271 291 295 249 222
319 315 308 304 302 298 299 296 290 287 287 280 270 270 263 271 273 281 267 273 277 275 277 281 271 277 279 281 284 282 280 280 275 271 266 272 285 307 279 262 267 284 270 254 223
314 312 308 304 305 304 308 303 297 298 296 280 276 279 277 268 260 259 257 261 263 265 264 272 272 272 275 290 288 269 271 280 281 282 280 265 295 303 277 244 256 273 265 238 220